Probability
0 0 0 0 0 0 0 0 0 0 0 0 0 0 0 0 0 0 0 0 0 0 0 0 0 0 0 0 0 0 0 0 0 0 0 0 0 0 0 0 0 0 0
0 0 0 0 0 0 0 0 0 0 0 0 0 0 0 0 0 0 0 0 0 0 0 0 0 0 0 0 0 0 0 0 0 0 0 0 0 0 0 0 0 0 0
0 0 0 0 0 0 0 0 0 0 0 0 0 0 0 0 0 0 0 0 0 0 0 0 0 0 0 0 0 0 0 0 0 0 0 0 0 0 0 0 0 0 0
0 0 1 2 2 1 0 0 0 0 0 0 0 0 0 0 0 0 0 0 0 0 0 0 0 0 0 0 0 0 0 0 0 0 0 0 0 0 0 0 0 0 0
0 0 2 5 4 1 0 0 0 0 0 0 0 0 0 0 0 0 0 0 0 0 0 0 0 0 0 0 0 0 0 0 0 0 0 0 0 0 0 0 0 0 0
0 0 3 6 5 1 0 0 0 0 0 0 0 0 0 0 0 0 0 0 0 0 0 0 0 0 0 0 0 0 0 0 0 0 0 0 0 0 0 0 0 0 0
0 0 2 6 6 3 2 2 1 0 0 0 0 0 0 0 0 0 0 0 0 0 0 0 0 0 0 0 0 0 0 0 0 0 0 0 0 0 0 0 0 0 0
0 0 1 5 7 7 6 5 3 1 0 0 0 0 0 0 0 0 0 0 0 0 0 0 0 0 0 0 0 0 0 0 0 0 0 0 0 0 0 0 0 0 0
0 0 1 5 9 9 8 7 5 2 0 0 0 0 0 0 0 0 0 0 0 0 0 0 0 0 0 0 0 0 0 0 0 0 0 0 0 0 0 0 0 0 0
1 1 4 9 11 10 8 7 4 2 0 0 0 0 0 0 0 0 0 0 0 0 0 0 0 0 0 0 0 0 0 0 0 0 0 0 0 0 0 0 0 0 0
5 4 8 16 18 16 12 8 5 2 0 0 0 0 0 0 0 0 0 0 0 0 0 0 0 0 1 1 0 0 0 0 0 0 0 0 0 1 3 6 7 4 3
20 15 15 22 28 26 19 12 7 5 2 1 0 0 0 0 0 0 0 0 0 0 0 0 1 3 6 8 6 4 2 1 1 0 0 0 1 3 11 21 26 22 17
45 36 27 26 30 29 20 13 11 9 7 5 2 0 0 0 0 0 0 0 1 2 3 5 9 13 16 18 16 11 7 4 2 1 1 1 1 4 17 37 50 47 39
68 57 42 31 27 23 16 14 14 12 10 9 6 4 4 4 2 1 0 1 2 4 6 10 16 19 21 19 16 12 8 5 3 2 2 2 1 4 16 37 55 56 48
73 66 54 41 31 22 18 18 19 18 16 16 14 15 21 22 14 5 1 1 2 4 6 8 11 14 14 11 8 7 5 2 1 1 1 1 2 5 12 28 43 45 41
65 63 59 52 43 35 33 34 36 38 39 38 35 38 47 46 29 11 2 1 1 2 2 2 3 4 4 4 3 2 1 1 0 0 0 1 3 4 10 22 33 35 34
54 55 55 53 51 51 54 59 64 67 69 65 59 60 63 55 34 13 3 0 0 0 0 0 1 1 1 1 1 0 0 1 0 0 1 1 2 3 8 19 29 33 33
41 42 44 46 50 56 63 73 80 83 80 72 65 61 57 46 28 12 3 1 0 0 0 0 0 0 0 0 0 0 0 0 0 0 0 0 1 2 5 13 23 30 32
24 26 28 31 39 48 57 67 74 73 64 55 49 44 38 30 19 8 3 1 0 0 0 0 0 0 0 0 0 0 0 0 0 0 0 0 0 1 5 10 19 27 29
11 13 15 17 23 33 42 49 52 47 37 30 27 25 20 13 8 4 1 0 0 0 0 0 0 0 0 0 0 0 0 0 0 0 0 0 0 3 7 13 22 29 30
5 6 7 8 10 16 24 28 27 23 16 11 11 10 7 3 2 1 0 0 0 0 0 0 0 0 0 0 0 0 0 0 0 0 0 0 1 4 9 15 23 30 34
2 2 2 2 3 5 9 12 11 9 6 3 3 2 1 0 0 0 0 0 0 0 0 0 0 0 0 0 0 0 0 0 0 0 0 0 1 3 6 10 17 25 31
1 1 0 0 0 1 3 5 6 4 2 1 0 0 0 0 0 0 0 0 0 0 0 0 0 0 0 0 0 0 0 0 0 0 0 0 0 1 1 4 9 16 20
1 0 0 0 0 0 1 3 4 3 1 0 0 0 0 0 0 1 1 1 0 0 0 0 0 0 0 0 0 0 0 0 0 0 0 0 0 0 0 1 3 7 10
0 0 0 0 0 0 1 2 2 2 1 1 1 1 0 0 1 1 2 2 1 1 0 0 0 0 0 0 0 0 0 0 0 0 0 0 0 0 0 0 0 2 4
0 0 0 0 0 0 0 1 0 0 1 2 2 2 1 1 2 2 3 3 2 2 1 0 0 0 0 0 0 0 0 0 0 0 0 0 0 0 0 0 0 1 2
Wind_Speed
11 13 18 17 17 17 18 18 17 17 17 17 17 17 16 16 16 17 17 16 16 15 14 14 13 13 12 12 13 13 13 13 13 13 14 14 13 12 11 14 13 10 14
16 15 19 18 17 18 19 18 18 17 17 17 17 17 16 16 15 16 16 16 15 14 14 13 13 12 12 12 11 11 11 11 11 12 12 12 12 11 10 12 12 8 13
18 14 17 18 18 19 19 19 18 18 17 17 16 16 16 16 15 15 15 15 14 14 13 13 12 12 11 11 10 10 10 9 9 10 10 5 6 10 12 14 13 12 12
18 13 14 19 19 20 20 19 18 18 18 17 17 16 16 15 15 14 14 14 13 13 13 12 12 11 10 10 9 9 9 8 7 8 5 4 5 10 12 14 14 12 12
14 11 15 21 20 20 20 19 19 18 18 17 17 16 16 15 15 15 14 13 13 13 12 12 12 11 10 9 8 8 7 7 7 5 3 4 4 10 12 14 14 13 12
13 11 15 21 21 20 20 19 19 18 18 17 17 16 16 15 15 14 14 13 13 12 12 11 11 10 10 9 8 7 6 6 5 3 3 5 6 12 14 14 14 14 13
12 10 14 21 21 20 20 19 19 18 18 17 17 16 15 14 14 14 13 13 12 12 11 11 11 10 9 9 8 7 7 7 4 3 3 4 7 14 16 16 15 15 14
15 12 12 21 21 20 20 19 18 18 17 17 16 16 15 14 14 13 13 13 12 12 12 11 11 11 11 10 9 9 8 8 6 4 3 4 9 15 17 17 16 16 15
14 13 10 12 15 19 19 19 18 18 17 17 16 16 15 15 14 14 13 13 13 13 13 12 12 12 12 11 11 11 10 10 6 3 5 3 10 17 18 17 17 17 16
12 12 11 10 9 10 12 18 18 17 17 16 16 16 15 15 14 14 12 12 14 14 14 14 14 14 13 12 12 12 12 10 6 5 4 4 9 16 19 18 18 18 17
13 11 10 10 9 8 8 13 15 16 16 16 14 16 14 7 7 8 12 14 15 15 16 16 15 15 14 13 14 14 12 5 5 5 5 8 11 15 19 18 18 18 18
16 14 11 11 10 9 9 8 6 8 8 8 6 8 6 5 6 9 11 17 18 18 18 17 17 15 12 6 9 12 5 6 6 6 6 12 12 14 18 19 18 18 18
16 15 13 12 11 11 8 7 5 5 5 7 8 7 5 5 5 6 4 8 10 13 10 10 11 7 6 5 5 5 6 6 5 6 7 12 13 14 16 19 19 18 18
13 12 12 12 11 11 9 8 7 6 6 6 8 8 6 5 5 5 4 4 4 4 5 5 4 6 7 8 7 7 7 6 5 4 6 13 13 15 16 18 19 19 18
8 7 7 8 9 10 9 7 7 7 7 7 6 7 8 6 6 6 4 3 4 3 3 4 4 5 6 7 7 7 7 7 7 6 5 12 15 15 16 17 19 19 18
7 4 3 6 6 6 7 6 5 6 5 5 6 8 9 6 5 4 4 3 3 3 3 4 4 4 4 4 5 6 6 6 6 7 6 8 15 16 16 17 19 20 20
7 6 4 2 3 4 7 8 6 5 5 5 5 6 7 6 5 4 3 3 3 3 3 3 3 2 3 3 4 5 4 5 6 6 6 6 7 12 16 18 19 20 20
11 10 7 2 4 7 5 5 3 3 4 4 4 4 6 6 5 4 3 3 2 2 2 2 2 2 2 2 3 3 4 4 6 6 6 6 6 6 11 18 20 20 21
12 12 12 12 8 7 6 2 1 2 4 3 3 4 5 5 6 4 3 2 2 1 1 1 1 1 1 2 3 3 4 4 5 7 7 8 7 7 7 12 19 21 22
9 9 9 9 11 8 4 3 2 1 0 1 3 4 5 5 6 5 3 3 3 2 1 1 1 1 1 2 3 3 4 4 4 5 7 6 6 8 9 10 9 13 21
7 6 7 6 8 6 4 3 1 1 1 1 3 5 5 5 6 5 4 3 3 2 2 1 1 1 1 0 1 3 4 4 4 4 4 4 5 6 7 7 7 7 7
5 4 6 5 4 3 4 3 1 2 2 2 3 3 5 6 6 6 6 4 4 2 1 1 1 1 1 0 1 0 3 5 4 2 1 1 2 3 4 6 6 7 7
8 8 8 6 5 4 5 2 2 1 1 1 1 2 4 6 7 7 7 5 4 4 3 2 2 3 2 1 1 3 1 2 4 4 2 1 2 2 3 4 4 5 7
8 8 8 6 7 7 6 5 3 2 2 2 2 2 4 5 6 7 7 7 6 4 4 3 3 3 3 2 1 2 3 3 2 3 3 2 2 2 3 3 3 3 4
7 7 6 6 7 8 8 8 6 5 3 3 2 2 2 3 4 5 7 7 6 5 5 4 4 3 3 3 3 2 2 2 3 3 4 4 3 2 3 3 2 2 2
5 5 5 5 6 7 7 8 8 7 6 6 5 4 4 3 3 4 5 6 7 6 6 5 5 5 4 4 3 3 3 3 3 3 4 4 4 3 3 3 2 1 1
Wind_Direction
161 164 162 159 159 157 152 146 141 137 134 131 129 125 123 122 124 126 127 126 125 123 121 120 120 119 117 115 114 115 116 117 119 120 119 118 116 115 116 118 111 109 109
156 162 160 158 158 157 153 149 146 143 141 139 136 133 130 129 129 131 132 130 129 127 126 125 125 125 124 122 120 119 120 121 123 125 125 124 122 118 123 132 120 123 119
152 158 157 155 156 156 154 153 151 149 148 147 144 141 139 138 138 138 138 138 136 134 134 133 133 132 132 132 131 129 127 128 131 133 130 124 129 124 121 130 131 129 126
151 154 155 155 156 157 157 156 156 156 155 154 152 149 147 146 146 146 146 145 145 144 143 144 143 143 144 144 144 143 142 143 148 152 148 156 161 147 138 137 139 138 136
149 152 158 156 158 159 159 160 161 161 161 160 158 157 155 155 155 154 154 154 153 153 153 154 154 156 158 159 160 161 161 163 172 179 182 184 186 169 159 151 149 149 147
151 155 161 159 160 162 163 164 165 166 166 165 164 163 163 163 163 162 162 162 162 163 164 164 165 167 171 174 179 185 189 193 194 200 222 211 191 187 177 166 161 159 159
152 159 165 163 164 165 166 168 170 170 170 170 169 169 170 172 172 172 172 172 173 174 176 177 179 181 185 190 197 206 217 227 219 214 232 216 189 189 186 177 171 169 170
157 162 167 168 168 169 170 172 174 175 175 175 176 176 177 179 181 182 183 184 185 187 189 191 194 195 198 203 209 217 228 241 250 233 222 210 200 196 193 185 180 179 179
160 165 170 171 173 174 175 177 179 180 181 182 183 184 186 188 190 192 194 196 198 200 201 203 206 208 209 212 217 222 230 240 249 256 263 229 208 205 200 192 187 186 187
165 171 174 173 173 174 178 183 184 185 187 188 190 192 195 197 199 202 204 209 210 211 213 214 215 217 218 220 224 229 234 241 242 245 249 244 227 213 206 199 195 193 194
173 178 178 176 175 173 176 188 188 190 194 195 197 200 200 204 207 211 216 218 221 222 222 223 223 224 224 227 231 234 238 231 228 240 242 245 239 224 215 207 204 201 200
181 182 182 181 178 174 184 185 187 194 197 198 198 203 200 197 209 217 225 228 229 229 229 229 229 229 230 228 234 237 233 230 230 237 239 242 243 234 225 217 212 208 205
181 181 182 183 182 182 189 182 189 197 196 202 204 206 204 203 215 225 223 236 236 235 232 233 230 226 225 224 224 223 229 234 234 235 237 242 247 243 231 223 218 214 211
175 182 180 181 184 191 194 188 189 195 197 204 209 206 203 209 216 222 222 224 223 223 219 221 219 219 224 230 230 229 233 235 235 233 238 244 250 250 241 227 219 216 214
158 161 171 182 193 198 198 193 193 198 201 202 202 206 205 208 216 219 221 218 217 212 213 216 221 224 222 229 233 233 237 237 235 232 239 242 245 246 242 229 221 219 219
105 103 150 186 198 215 209 196 192 196 200 196 198 205 203 203 208 212 220 220 217 203 199 205 213 220 221 223 231 232 229 229 227 226 227 241 243 238 236 230 224 224 223
86 74 80 201 241 235 221 200 188 183 179 182 190 193 188 188 194 195 204 217 222 213 206 210 223 226 236 234 236 237 233 232 232 226 224 226 235 236 233 231 229 228 228
52 40 32 315 319 288 252 212 184 172 162 169 176 176 178 180 178 175 189 215 220 210 207 216 224 234 244 243 249 252 245 241 243 238 231 228 226 235 235 234 234 232 231
61 47 28 359 335 312 291 263 220 164 157 163 169 173 179 176 174 170 181 202 184 165 195 223 187 194 230 258 263 258 254 249 248 250 242 236 230 226 228 236 237 236 236
60 61 46 20 336 304 311 328 319 343 132 164 181 184 180 177 174 163 164 172 152 130 131 158 188 197 205 235 275 284 268 256 248 244 246 246 240 235 231 233 236 240 240
61 72 70 40 346 337 340 309 323 293 285 243 215 193 184 180 170 159 154 151 140 142 174 190 183 226 267 220 24 318 298 273 256 250 249 252 257 254 246 238 233 234 240
45 71 81 57 359 325 299 282 269 261 253 241 225 200 191 180 171 163 159 161 157 154 172 184 161 167 256 168 143 9 333 333 331 301 288 263 285 288 272 260 236 228 230
47 37 40 30 20 342 323 323 327 343 346 357 289 226 213 192 177 167 171 166 170 169 189 208 192 171 200 253 178 159 171 269 308 312 302 310 327 318 296 285 258 235 225
47 45 39 25 17 1 2 14 22 11 330 297 277 255 237 208 190 179 178 175 177 179 190 209 190 181 175 215 252 204 190 188 226 304 310 302 310 311 307 308 294 260 225
44 43 32 25 21 12 17 23 24 15 340 321 329 318 282 246 223 204 190 184 185 187 195 202 200 202 190 193 205 214 223 213 204 221 286 309 319 288 288 285 278 256 209
42 45 42 32 21 13 20 26 23 16 360 355 351 342 325 307 283 253 217 200 194 192 197 201 204 208 211 212 212 205 201 207 206 204 249 289 303 299 301 287 269 233 170